TimeEST,TemperatureF,Dew PointF,Humidity,Sea Level PressureIn,VisibilityMPH,Wind Direction,Wind SpeedMPH,Gust SpeedMPH,PrecipitationIn,Events,Conditions,WindDirDegrees,DateUTC
12:39 AM,39.2,39.2,100,30.12,0.5,Calm,Calm,-,N/A,Fog,Fog,0,2013-01-13 05:39:00
12:56 AM,37.9,37.9,100,30.17,0.5,SW,3.5,-,0.01,Fog,Fog,230,2013-01-13 05:56:00
1:08 AM,39.2,39.2,100,30.12,2.0,Calm,Calm,-,N/A,,Overcast,0,2013-01-13 06:08:00
1:18 AM,39.2,39.2,100,30.12,2.0,SSW,3.5,-,N/A,,Overcast,210,2013-01-13 06:18:00
1:34 AM,39.2,39.2,100,30.12,4.0,SSW,4.6,-,N/A,,Overcast,210,2013-01-13 06:34:00
1:56 AM,39.9,39.9,100,30.17,4.0,Calm,Calm,-,N/A,,Overcast,0,2013-01-13 06:56:00
2:08 AM,39.2,39.2,100,30.13,2.0,Calm,Calm,-,N/A,,Overcast,0,2013-01-13 07:08:00
2:46 AM,41.0,41.0,100,30.13,4.0,South,3.5,-,N/A,,Overcast,180,2013-01-13 07:46:00
2:56 AM,41.0,41.0,100,30.17,7.0,South,3.5,-,N/A,,Overcast,190,2013-01-13 07:56:00
3:17 AM,41.0,41.0,100,30.12,10.0,SW,4.6,-,N/A,,Overcast,230,2013-01-13 08:17:00
3:56 AM,41.0,41.0,100,30.15,10.0,Calm,Calm,-,N/A,,Overcast,0,2013-01-13 08:56:00
4:56 AM,39.9,39.9,100,30.15,9.0,SSW,3.5,-,N/A,,Overcast,210,2013-01-13 09:56:00
5:16 AM,41.0,41.0,100,30.09,10.0,Calm,Calm,-,N/A,,Overcast,0,2013-01-13 10:16:00
5:38 AM,39.2,39.2,100,30.08,6.0,ESE,3.5,-,N/A,,Overcast,120,2013-01-13 10:38:00
5:56 AM,39.9,39.9,100,30.15,6.0,Calm,Calm,-,N/A,,Overcast,0,2013-01-13 10:56:00
6:30 AM,39.2,39.2,100,30.10,4.0,South,3.5,-,N/A,,Overcast,180,2013-01-13 11:30:00
6:56 AM,41.0,41.0,100,30.15,4.0,Calm,Calm,-,N/A,,Overcast,0,2013-01-13 11:56:00
7:31 AM,41.0,41.0,100,30.12,2.0,Calm,Calm,-,N/A,,Overcast,0,2013-01-13 12:31:00
7:38 AM,41.0,41.0,100,30.12,1.2,Calm,Calm,-,N/A,,Overcast,0,2013-01-13 12:38:00
7:56 AM,42.1,42.1,100,30.17,0.8,Calm,Calm,-,N/A,,Overcast,0,2013-01-13 12:56:00
8:10 AM,42.8,42.8,100,30.14,1.5,Calm,Calm,-,N/A,,Overcast,0,2013-01-13 13:10:00
8:39 AM,42.8,42.8,100,30.13,2.0,South,3.5,-,N/A,,Overcast,190,2013-01-13 13:39:00
8:49 AM,42.8,42.8,100,30.13,1.8,South,3.5,-,N/A,,Overcast,170,2013-01-13 13:49:00
8:56 AM,43.0,43.0,100,30.17,2.5,Calm,Calm,-,N/A,,Overcast,0,2013-01-13 13:56:00
9:09 AM,42.8,42.8,100,30.13,3.0,Calm,Calm,-,N/A,,Overcast,0,2013-01-13 14:09:00
9:44 AM,44.6,44.6,100,30.13,2.5,SSW,3.5,-,N/A,,Overcast,200,2013-01-13 14:44:00
9:54 AM,44.6,44.6,100,30.13,1.5,South,3.5,-,N/A,,Overcast,180,2013-01-13 14:54:00
9:56 AM,44.6,44.6,100,30.13,1.5,Calm,Calm,-,N/A,,Overcast,0,2013-01-13 14:56:00
10:56 AM,46.0,46.0,100,30.17,1.5,SSW,5.8,-,N/A,,Overcast,200,2013-01-13 15:56:00
11:56 AM,46.9,46.9,100,30.14,1.5,SSW,4.6,-,N/A,,Overcast,210,2013-01-13 16:56:00
12:03 PM,46.4,46.4,100,30.09,4.0,SW,3.5,-,N/A,,Overcast,220,2013-01-13 17:03:00
12:52 PM,46.4,46.4,100,30.06,1.5,SSW,8.1,-,N/A,,Overcast,200,2013-01-13 17:52:00
12:56 PM,46.9,46.9,100,30.11,1.5,SSW,9.2,-,N/A,,Overcast,200,2013-01-13 17:56:00
1:54 PM,48.2,48.2,100,30.06,3.0,South,6.9,-,N/A,,Overcast,190,2013-01-13 18:54:00
1:56 PM,48.9,48.9,100,30.10,3.0,South,6.9,-,N/A,,Overcast,190,2013-01-13 18:56:00
2:19 PM,48.2,48.2,100,30.05,10.0,South,6.9,-,N/A,,Overcast,190,2013-01-13 19:19:00
2:56 PM,50.0,50.0,100,30.09,7.0,SSE,4.6,-,N/A,,Overcast,160,2013-01-13 19:56:00
3:56 PM,50.0,50.0,100,30.07,10.0,SSE,8.1,-,N/A,,Overcast,160,2013-01-13 20:56:00
4:56 PM,48.9,48.9,100,30.06,7.0,South,5.8,-,N/A,,Overcast,170,2013-01-13 21:56:00
5:56 PM,48.9,48.9,100,30.04,10.0,South,6.9,-,N/A,,Scattered Clouds,180,2013-01-13 22:56:00
6:56 PM,48.9,48.9,100,30.04,10.0,SW,3.5,-,N/A,,Scattered Clouds,230,2013-01-13 23:56:00
7:07 PM,48.2,48.2,100,30.01,10.0,WSW,4.6,-,N/A,,Mostly Cloudy,240,2013-01-14 00:07:00
7:56 PM,50.0,48.9,96,30.05,10.0,SW,4.6,-,N/A,,Overcast,220,2013-01-14 00:56:00
8:56 PM,50.0,48.9,96,30.04,10.0,SSW,5.8,-,N/A,,Overcast,200,2013-01-14 01:56:00
9:56 PM,50.0,48.9,96,30.02,10.0,SSW,8.1,-,N/A,,Overcast,210,2013-01-14 02:56:00
10:24 PM,51.8,48.2,88,29.98,10.0,SW,6.9,-,N/A,,Overcast,220,2013-01-14 03:24:00
10:56 PM,51.1,50.0,96,30.02,10.0,SSW,10.4,-,N/A,,Overcast,210,2013-01-14 03:56:00
11:56 PM,51.1,50.0,96,30.02,10.0,SW,9.2,-,N/A,,Overcast,220,2013-01-14 04:56:00